Terminal Aerodrome Forecast
Issued by NWS

Home | Current Version | Previous Version | Text Only | Print | Product List | Glossary On
Versions: 1 2 3 4 5 6 7 8 9 10 11 12 13 14 15 16 17 18 19
000
FTAK31 PAJN 160600 AAA
TAFASI
TAF AMD
PASI 160628Z 1606/1706 VRB03KT P6SM -RA SCT006 OVC020
     FM160800 VRB03KT 6SM -RA BR BCFG SCT005 BKN015 OVC025
     FM161400 27005KT P6SM BCFG SCT005 BKN060
     FM170200 31004KT P6SM BKN100=

USA.gov is the U.S. government's official web portal to all federal, state and local government web resources and services.